Powrót do katalogu

COSMOS 2298 DEB

AktywnyLEO
NORAD 23434·DEBRIS·🇷🇺 Russia

Wystrzelony Dec 20, 1994 z Plesetsk Cosmodrome

Loading…

Następne Przeloty (najbliższe 24 godziny)

TLE

ŚwieżeSource: Space-Track

Epoka: Sep 14, 2026, 07:29 UTC

1 23434U 94083D   26257.31216427  .00000490  00000-0  16705-3 0  9993
2 23434  74.0289 315.9212 0009867 124.2051 358.7117 14.39024184657327

Śledź COSMOS 2298 DEB w czasie rzeczywistym z AllMySat

Download on the App Store